Location: *
(42.0175°N, 9.4056°E)
Time: 23:45:54
(UTC+00:00)

SL-16 R/B - Pass Details

Date: 25 August 2019
Orbit: 842 x 846 km, 71.0° (Epoch: 23 October)

Event Time Altitude Azimuth Distance (km) Brightness Sun altitude
Rises 21:22:46 0° 338° (NNW) 3,413 6.5 -30.4°
Reaches altitude 10° 21:25:16 10° 342° (NNW) 2,474 5.5 -30.7°
Enters shadow 21:29:50 52° 16° (NNE) 1,043 2.7 -31.2°
